Location: Hungerford
(51.4167°N, 1.5167°W)
Time: 13:51:43
(UTC+00:00)

CENTAUR R/B - Pass Details

Date: 18 September 2020
Orbit: 755 x 1433 km, 63.4° (Epoch: 02 October)

Event Time Altitude Azimuth Distance (km) Brightness Sun altitude
Rises 19:21:30 0° 312° (NW) 4,004 7.0 -11.4°
Reaches altitude 10° 19:24:07 10° 316° (NW) 3,132 6.2 -11.8°
Maximum altitude 19:31:47 63° 37° (NE) 1,462 3.3 -12.9°
Enters shadow 19:38:32 18° 114° (ESE) 2,917 4.3 -13.9°
